• In Germany
  • List of Countries
  • For 7 days
  • Water Temperature
  • Satellite Maps
  • Weather Map
  • Weather Widgets
  • user-avatar
    Login

    Hourly Weather Idzhewan

    Today, 28 May, Monday

    Time Temperature Precipitation Wind Pressure Humidity
    00:00 +15°C° 0 mm 1 mps 698 mmHg 88%
    01:00 +15°C° 0 mm 1 mps 698 mmHg 89%
    02:00 +14°C° 0 mm 1 mps 698 mmHg 89%
    03:00 +13°C° 0 mm 0 mps 698 mmHg 90%
    04:00 +13°C° 0 mm 0 mps 698 mmHg 88%
    05:00 +14°C° 0 mm 0 mps 697 mmHg 86%
    06:00 +14°C° 0 mm 0 mps 697 mmHg 84%
    07:00 +19°C° 0 mm 1 mps 697 mmHg 76%
    08:00 +21°C° 0 mm 1 mps 697 mmHg 69%
    09:00 +23°C° 0 mm 1 mps 697 mmHg 62%
    10:00 +24°C° 0 mm 1 mps 696 mmHg 59%
    11:00 +25°C° 0 mm 2 mps 696 mmHg 55%
    12:00 +27°C° 0 mm 2 mps 696 mmHg 52%
    13:00 +27°C° 0.1 mm 2 mps 695 mmHg 51%
    14:00 +28°C° 0.1 mm 2 mps 695 mmHg 50%
    15:00 +28°C° 0.1 mm 2 mps 694 mmHg 49%
    16:00 +27°C° 0.2 mm 2 mps 694 mmHg 54%
    17:00 +27°C° 0.2 mm 2 mps 694 mmHg 59%
    18:00 +26°C° 0.2 mm 2 mps 694 mmHg 64%
    19:00 +24°C° 0.1 mm 1 mps 694 mmHg 68%
    20:00 +22°C° 0.1 mm 1 mps 694 mmHg 73%
    21:00 +20°C° 0.1 mm 1 mps 694 mmHg 77%
    22:00 +20°C° 0 mm 1 mps 694 mmHg 77%
    23:00 +19°C° 0 mm 1 mps 694 mmHg 78%

    Tomorrow, 29 May, Tuesday

    Time Temperature Precipitation Wind Pressure Humidity
    00:00 +19°C° 0 mm 1 mps 694 mmHg 78%
    01:00 +18°C° 0 mm 1 mps 694 mmHg 79%
    02:00 +18°C° 0 mm 1 mps 693 mmHg 80%
    03:00 +18°C° 0 mm 1 mps 693 mmHg 80%
    04:00 +18°C° 0 mm 1 mps 693 mmHg 79%
    05:00 +19°C° 0 mm 1 mps 693 mmHg 78%
    06:00 +19°C° 0 mm 1 mps 693 mmHg 77%
    07:00 +21°C° 0 mm 1 mps 693 mmHg 74%
    08:00 +21°C° 0 mm 2 mps 693 mmHg 70%
    09:00 +22°C° 0 mm 3 mps 693 mmHg 66%
    10:00 +22°C° 0.2 mm 3 mps 693 mmHg 69%
    11:00 +21°C° 0.2 mm 3 mps 693 mmHg 72%
    12:00 +21°C° 0.2 mm 3 mps 693 mmHg 74%
    13:00 +21°C° 1.2 mm 3 mps 693 mmHg 77%
    14:00 +20°C° 1.2 mm 2 mps 693 mmHg 80%
    15:00 +19°C° 1.2 mm 2 mps 693 mmHg 83%
    16:00 +19°C° 2 mm 2 mps 693 mmHg 86%
    17:00 +18°C° 2 mm 2 mps 693 mmHg 88%
    18:00 +18°C° 2 mm 2 mps 693 mmHg 90%
    19:00 +17°C° 0.4 mm 2 mps 693 mmHg 91%
    20:00 +17°C° 0.4 mm 2 mps 693 mmHg 91%
    21:00 +17°C° 0.4 mm 2 mps 693 mmHg 92%
    22:00 +16°C° 0.2 mm 2 mps 693 mmHg 92%
    23:00 +16°C° 0.2 mm 2 mps 693 mmHg 91%

    Day after tomorrow, 30 May, Wednesday

    Time Temperature Precipitation Wind Pressure Humidity
    00:00 +16°C° 0.2 mm 2 mps 693 mmHg 91%
    01:00 +16°C° 0.2 mm 2 mps 693 mmHg 91%
    02:00 +15°C° 0.2 mm 2 mps 693 mmHg 91%
    03:00 +15°C° 0.2 mm 2 mps 693 mmHg 91%
    04:00 +15°C° 0.1 mm 2 mps 693 mmHg 91%
    05:00 +15°C° 0.1 mm 2 mps 693 mmHg 90%
    06:00 +15°C° 0.1 mm 2 mps 693 mmHg 90%
    07:00 +15°C° 0.2 mm 2 mps 693 mmHg 87%
    08:00 +16°C° 0.2 mm 3 mps 694 mmHg 84%
    09:00 +16°C° 0.2 mm 3 mps 694 mmHg 81%
    10:00 +17°C° 0.1 mm 3 mps 694 mmHg 78%
    11:00 +18°C° 0.1 mm 3 mps 693 mmHg 76%
    12:00 +19°C° 0.1 mm 3 mps 693 mmHg 73%
    13:00 +19°C° 0 mm 3 mps 693 mmHg 71%
    14:00 +20°C° 0 mm 3 mps 693 mmHg 70%
    15:00 +20°C° 0 mm 3 mps 693 mmHg 69%
    16:00 +20°C° 0 mm 2 mps 692 mmHg 71%
    17:00 +19°C° 0 mm 2 mps 692 mmHg 74%
    18:00 +19°C° 0 mm 2 mps 692 mmHg 76%
    19:00 +18°C° 0.1 mm 2 mps 692 mmHg 79%
    20:00 +18°C° 0.1 mm 1 mps 692 mmHg 82%
    21:00 +16°C° 0.1 mm 1 mps 693 mmHg 84%
    22:00 +16°C° 0 mm 1 mps 692 mmHg 85%
    23:00 +16°C° 0 mm 1 mps 692 mmHg 85%

    31 May, Thursday

    Time Temperature Precipitation Wind Pressure Humidity
    00:00 +16°C° 0 mm 1 mps 692 mmHg 86%
    01:00 +15°C° 0 mm 1 mps 692 mmHg 86%
    02:00 +15°C° 0 mm 1 mps 691 mmHg 86%
    03:00 +15°C° 0 mm 1 mps 691 mmHg 87%
    04:00 +16°C° 0 mm 1 mps 691 mmHg 85%
    05:00 +16°C° 0 mm 1 mps 691 mmHg 83%
    06:00 +18°C° 0 mm 1 mps 691 mmHg 81%
    07:00 +19°C° 0 mm 1 mps 691 mmHg 76%
    08:00 +20°C° 0 mm 1 mps 690 mmHg 71%
    09:00 +22°C° 0 mm 1 mps 690 mmHg 67%
    10:00 +23°C° 0.1 mm 2 mps 690 mmHg 64%
    11:00 +24°C° 0.1 mm 2 mps 689 mmHg 60%
    12:00 +26°C° 0.1 mm 2 mps 689 mmHg 57%
    13:00 +26°C° 0.8 mm 2 mps 689 mmHg 57%
    14:00 +26°C° 0.8 mm 2 mps 688 mmHg 58%
    15:00 +26°C° 0.8 mm 2 mps 688 mmHg 58%
    16:00 +24°C° 1.7 mm 2 mps 688 mmHg 66%
    17:00 +23°C° 1.7 mm 2 mps 687 mmHg 74%
    18:00 +20°C° 1.7 mm 2 mps 687 mmHg 82%
    19:00 +19°C° 0.4 mm 2 mps 688 mmHg 83%
    20:00 +19°C° 0.4 mm 1 mps 688 mmHg 83%
    21:00 +18°C° 0.4 mm 1 mps 688 mmHg 84%
    22:00 +18°C° 0.1 mm 1 mps 688 mmHg 84%
    23:00 +17°C° 0.1 mm 2 mps 688 mmHg 83%

    1 June, Friday

    Time Temperature Precipitation Wind Pressure Humidity
    00:00 +17°C° 0.1 mm 2 mps 689 mmHg 83%
    01:00 +16°C° 0 mm 2 mps 688 mmHg 82%
    02:00 +16°C° 0 mm 2 mps 688 mmHg 82%
    03:00 +16°C° 0 mm 2 mps 688 mmHg 82%
    04:00 +17°C° 0 mm 2 mps 689 mmHg 81%
    05:00 +17°C° 0 mm 2 mps 689 mmHg 80%
    06:00 +18°C° 0 mm 2 mps 689 mmHg 79%
    07:00 +20°C° 0 mm 2 mps 689 mmHg 71%
    08:00 +23°C° 0 mm 2 mps 689 mmHg 64%
    09:00 +25°C° 0 mm 2 mps 690 mmHg 57%
    10:00 +26°C° 0 mm 3 mps 689 mmHg 54%
    11:00 +27°C° 0 mm 3 mps 689 mmHg 50%
    12:00 +28°C° 0 mm 3 mps 689 mmHg 47%
    13:00 +29°C° 0 mm 3 mps 689 mmHg 46%
    14:00 +29°C° 0 mm 3 mps 689 mmHg 44%
    15:00 +29°C° 0 mm 3 mps 688 mmHg 43%
    16:00 +29°C° 0 mm 2 mps 688 mmHg 48%
    17:00 +28°C° 0 mm 2 mps 689 mmHg 52%
    18:00 +27°C° 0 mm 2 mps 689 mmHg 57%
    19:00 +25°C° 1 mm 2 mps 689 mmHg 62%
    20:00 +23°C° 1 mm 1 mps 689 mmHg 68%
    21:00 +20°C° 1 mm 1 mps 689 mmHg 73%
    22:00 +20°C° 0.1 mm 1 mps 689 mmHg 74%
    23:00 +19°C° 0.1 mm 1 mps 689 mmHg 75%

    2 June, Saturday

    Time Temperature Precipitation Wind Pressure Humidity
    00:00 +18°C° 0.1 mm 2 mps 689 mmHg 75%
    01:00 +17°C° 0 mm 2 mps 689 mmHg 75%
    02:00 +17°C° 0 mm 2 mps 689 mmHg 75%
    03:00 +16°C° 0 mm 2 mps 689 mmHg 75%
    04:00 +17°C° 0 mm 2 mps 689 mmHg 75%
    05:00 +18°C° 0 mm 2 mps 690 mmHg 74%
    06:00 +18°C° 0 mm 2 mps 690 mmHg 74%
    07:00 +20°C° 0 mm 2 mps 690 mmHg 67%
    08:00 +23°C° 0 mm 2 mps 690 mmHg 61%
    09:00 +25°C° 0 mm 2 mps 690 mmHg 55%
    10:00 +26°C° 0.2 mm 2 mps 690 mmHg 53%
    11:00 +27°C° 0.2 mm 2 mps 690 mmHg 51%
    12:00 +28°C° 0.2 mm 2 mps 690 mmHg 49%
    13:00 +28°C° 0.6 mm 2 mps 689 mmHg 50%
    14:00 +28°C° 0.6 mm 2 mps 689 mmHg 50%
    15:00 +28°C° 0.6 mm 2 mps 689 mmHg 51%
    16:00 +27°C° 0.6 mm 2 mps 689 mmHg 57%
    17:00 +26°C° 0.6 mm 2 mps 689 mmHg 63%
    18:00 +25°C° 0.6 mm 2 mps 689 mmHg 69%
    19:00 +23°C° 0.4 mm 2 mps 690 mmHg 73%
    20:00 +22°C° 0.4 mm 1 mps 690 mmHg 77%
    21:00 +20°C° 0.4 mm 1 mps 691 mmHg 81%
    22:00 +19°C° 0 mm 1 mps 691 mmHg 82%
    23:00 +19°C° 0 mm 1 mps 691 mmHg 82%
    Show more